Location: Aldenham
(51.6667°N, 0.3500°W)
Time: 06:05:18
(UTC+00:00)

Cosmos 540 Rocket - Pass Details

Date: 18 November 2025
Orbit: 735 x 747 km, 74.1° (Epoch: 10 December)

Event Time Altitude Azimuth Distance (km) Brightness Sun altitude
Rises 16:35:50 0° 337° (NNW) 3,203 6.7 -4.7°
Reaches altitude 10° 16:38:19 10° 344° (NNW) 2,274 5.9 -5.1°
Maximum altitude 16:43:14 44° 57° (ENE) 1,026 3.8 -5.8°
Drops below altitude 10° 16:48:07 10° 130° (SE) 2,253 5.7 -6.5°
Sets 16:50:34 0° 136° (SE) 3,170 6.5 -6.8°
